Home   Weather   Mettmann   Past weeks

Flag for Germany Past Weather in Mettmann, North Rhine-Westphalia, Germany — Yesterday and Last 2 Weeks

Now
28 °F

Passing clouds.


Feels Like: 21 °F
Forecast: 22 / 31 °F
Wind: 7 mph from Northeast

Location: Duesseldorf

Current Time: Jan 17, 2017 at 6:40:11 pm

Latest Report: Jan 17, 2017 at 6:20 pm


Visibility: 6 mi

Pressure: 30.66 "Hg

Humidity: 80%

Dew Point: 23 °F

Location of MettmannLocation

Past Weather in Mettmann — Graph

°F

Mettmann Temperature Yesterday

Maximum temperature yesterday: 36 °F (at 2:20 pm)
Minimum temperature yesterday: 25 °F (at 11:50 pm)
Average temperature yesterday: 32 °F

High & Low Weather Summary for the Past Weeks

 TemperatureHumidityPressure
High46 °F (Jan 11, 2:20 pm)100% (Jan 2, 6:20 pm)30.74 "Hg (Jan 2, 6:20 pm)
Low16 °F (Jan 6, 4:50 am)56% (Jan 5, 1:20 pm)28.94 "Hg (Jan 13, 1:20 am)
Average34 °F86%30.13 "Hg
* Reported Jan 2 5:20 pm — Jan 17 5:20 pm, Mettmann, Weather by CustomWeather, © 2017

Note: Actual official high and low records may vary slightly from our data, if they occured in-between our weather recording intervals... More about our weather records

Advertising

Mettmann Weather History for the Previous 24 Hours

Scroll right to see more
 ConditionsComfort  
Time TempWeatherWind HumidityBarometerVisibility
5:20 pm
Tue, Jan 17
28 °FPassing clouds.7 mph80%30.66 "HgN/A
4:50 pm28 °FPassing clouds.7 mph80%30.63 "HgN/A
4:20 pm30 °FPassing clouds.8 mph75%30.63 "HgN/A
3:50 pm30 °FPassing clouds.10 mph80%30.63 "HgN/A
3:20 pm32 °FPassing clouds.12 mph75%30.63 "HgN/A
2:50 pm32 °FPassing clouds.10 mph75%30.63 "HgN/A
2:20 pm32 °FPassing clouds.9 mph69%30.63 "HgN/A
1:50 pm32 °FPassing clouds.7 mph69%30.63 "HgN/A
1:20 pm32 °FPassing clouds.8 mph75%30.63 "HgN/A
12:50 pm32 °FPassing clouds.7 mph69%30.66 "HgN/A
12:20 pm32 °FPassing clouds.6 mph69%30.66 "HgN/A
11:50 am30 °FPassing clouds.6 mph69%30.66 "HgN/A
11:20 am30 °FPassing clouds.5 mph69%30.63 "HgN/A
10:50 am28 °FSunny.6 mph74%30.66 "Hg10 mi
10:20 am28 °FSunny.1 mph80%30.63 "Hg10 mi
9:50 am27 °FPassing clouds.3 mph86%30.63 "HgN/A
9:20 am25 °FScattered clouds.1 mph86%30.63 "HgN/A
8:50 am21 °FScattered clouds.2 mph86%30.63 "HgN/A
8:20 am23 °FPassing clouds.3 mph86%30.60 "HgN/A
7:50 am23 °FPassing clouds.5 mph86%30.60 "HgN/A
7:20 am25 °FPassing clouds.1 mph86%30.60 "HgN/A
6:50 am27 °FPassing clouds.1 mph80%30.60 "HgN/A
6:20 am25 °FPassing clouds.1 mph86%30.57 "HgN/A
5:50 am25 °FPassing clouds.3 mph86%30.57 "HgN/A
5:20 am25 °FPassing clouds.2 mph86%30.57 "HgN/A
4:50 am25 °FPassing clouds.2 mph86%30.57 "HgN/A
4:20 am27 °FPassing clouds.8 mph80%30.54 "HgN/A
3:50 am27 °FPassing clouds.2 mph86%30.54 "HgN/A
3:20 am27 °FPassing clouds.3 mph80%30.54 "HgN/A
2:50 am27 °FPassing clouds.5 mph80%30.54 "HgN/A
2:20 am25 °FPassing clouds.6 mph93%30.54 "HgN/A
1:50 am25 °FPassing clouds.3 mph86%30.51 "HgN/A
1:20 am23 °FPassing clouds.3 mph93%30.51 "HgN/A
12:50 am23 °FPassing clouds.5 mph93%30.51 "HgN/A
12:20 am25 °FPassing clouds.3 mph86%30.51 "HgN/A
11:50 pm
Mon, Jan 16
25 °FPassing clouds.2 mph93%30.51 "HgN/A
11:20 pm27 °FPassing clouds.3 mph86%30.48 "HgN/A
10:50 pm27 °FPassing clouds.3 mph86%30.48 "HgN/A
10:20 pm27 °FPassing clouds.7 mph86%30.48 "HgN/A
9:50 pm28 °FPassing clouds.6 mph80%30.48 "HgN/A
9:20 pm27 °FPassing clouds.5 mph93%30.45 "HgN/A
8:50 pm28 °FPassing clouds.5 mph86%30.45 "HgN/A
8:20 pm27 °FClear.3 mph86%30.42 "Hg10 mi
7:50 pm28 °FClear.3 mph86%30.42 "Hg10 mi
7:20 pm28 °FClear.3 mph86%30.42 "Hg10 mi
6:50 pm30 °FClear.5 mph80%30.39 "Hg10 mi
6:20 pm32 °FClear.7 mph75%30.39 "Hg10 mi
Weather by CustomWeather, © 2017

See weather overviewHow to use our weather pages